Location: Ciserano
(45.5833°N, 9.6000°E)
Time: 03:53:26
(UTC+00:00)

Cosmos 1898 Rocket - Pass Details

Date: 29 November 2020
Orbit: 754 x 783 km, 74.0° (Epoch: 24 January)

Event Time Altitude Azimuth Distance (km) Brightness Sun altitude
Rises 04:44:52 0° 202° (SSW) 3,244 6.6 -19.5°
Reaches altitude 10° 04:47:14 10° 203° (SSW) 2,324 5.9 -19.1°
Maximum altitude 04:52:32 82° 292° (WNW) 795 3.4 -18.2°
Drops below altitude 10° 04:57:54 10° 20° (NNE) 2,349 6.1 -17.3°
Sets 05:00:18 0° 21° (NNE) 3,282 6.9 -16.8°
